TimeCST,TemperatureF,Dew PointF,Humidity,Sea Level PressureIn,VisibilityMPH,Wind Direction,Wind SpeedMPH,Gust SpeedMPH,PrecipitationIn,Events,Conditions,WindDirDegrees,DateUTC
12:15 AM,42.8,37.4,81,30.23,10.0,Calm,Calm,-,N/A,,Overcast,0,2013-01-09 06:15:00
12:35 AM,42.8,37.4,81,30.24,10.0,Calm,Calm,-,N/A,,Overcast,0,2013-01-09 06:35:00
12:55 AM,42.8,37.4,81,30.25,10.0,Calm,Calm,-,N/A,,Overcast,0,2013-01-09 06:55:00
1:15 AM,42.8,37.4,81,30.25,10.0,Calm,Calm,-,N/A,,Mostly Cloudy,0,2013-01-09 07:15:00
1:35 AM,44.6,39.2,81,30.25,10.0,Calm,Calm,-,N/A,,Overcast,0,2013-01-09 07:35:00
1:55 AM,44.6,39.2,81,30.25,10.0,Calm,Calm,-,N/A,,Overcast,0,2013-01-09 07:55:00
2:15 AM,44.6,39.2,81,30.26,7.0,Calm,Calm,-,N/A,,Unknown,0,2013-01-09 08:15:00
2:35 AM,44.6,39.2,81,30.26,10.0,NNW,4.6,-,N/A,,Mostly Cloudy,330,2013-01-09 08:35:00
2:55 AM,42.8,39.2,87,30.26,10.0,Calm,Calm,-,N/A,,Scattered Clouds,0,2013-01-09 08:55:00
3:15 AM,44.6,39.2,81,30.26,10.0,Calm,Calm,-,N/A,,Mostly Cloudy,0,2013-01-09 09:15:00
3:35 AM,42.8,39.2,87,30.26,10.0,Calm,Calm,-,N/A,,Overcast,0,2013-01-09 09:35:00
3:55 AM,42.8,39.2,87,30.27,10.0,Calm,Calm,-,N/A,,Overcast,0,2013-01-09 09:55:00
4:15 AM,44.6,39.2,81,30.27,10.0,Calm,Calm,-,N/A,,Overcast,0,2013-01-09 10:15:00
4:35 AM,44.6,41.0,87,30.27,10.0,Calm,Calm,-,N/A,,Overcast,0,2013-01-09 10:35:00
4:55 AM,44.6,41.0,87,30.29,10.0,NNW,3.5,-,N/A,,Overcast,330,2013-01-09 10:55:00
5:15 AM,44.6,41.0,87,30.30,10.0,Calm,Calm,-,N/A,,Overcast,0,2013-01-09 11:15:00
5:35 AM,44.6,41.0,87,30.31,10.0,NNW,4.6,-,N/A,,Overcast,330,2013-01-09 11:35:00
5:55 AM,46.4,41.0,81,30.32,10.0,Calm,Calm,-,N/A,,Overcast,0,2013-01-09 11:55:00
6:15 AM,46.4,41.0,81,30.33,10.0,ENE,3.5,-,N/A,,Overcast,60,2013-01-09 12:15:00
6:35 AM,46.4,41.0,81,30.32,10.0,East,5.8,-,N/A,,Overcast,100,2013-01-09 12:35:00
7:15 AM,46.4,41.0,81,30.36,10.0,Calm,Calm,-,N/A,,Overcast,0,2013-01-09 13:15:00
7:35 AM,46.4,41.0,81,30.36,10.0,ESE,3.5,-,N/A,,Overcast,110,2013-01-09 13:35:00
7:55 AM,46.4,41.0,81,30.36,10.0,East,4.6,-,N/A,,Overcast,100,2013-01-09 13:55:00
8:15 AM,48.2,42.8,82,30.38,10.0,Calm,Calm,-,N/A,,Overcast,0,2013-01-09 14:15:00
8:35 AM,48.2,42.8,82,30.39,10.0,SE,4.6,-,N/A,,Overcast,140,2013-01-09 14:35:00
8:55 AM,48.2,42.8,82,30.41,10.0,Calm,Calm,-,N/A,,Overcast,0,2013-01-09 14:55:00
9:15 AM,48.2,42.8,82,30.41,10.0,Calm,Calm,-,N/A,,Overcast,0,2013-01-09 15:15:00
9:35 AM,48.2,42.8,82,30.41,10.0,Calm,Calm,-,N/A,,Mostly Cloudy,0,2013-01-09 15:35:00
9:55 AM,50.0,42.8,76,30.41,10.0,NNE,4.6,-,N/A,,Overcast,30,2013-01-09 15:55:00
10:15 AM,51.8,44.6,76,30.39,10.0,Calm,Calm,-,N/A,,Overcast,0,2013-01-09 16:15:00
10:35 AM,51.8,44.6,76,30.39,10.0,NNE,4.6,-,N/A,,Mostly Cloudy,20,2013-01-09 16:35:00
10:55 AM,53.6,44.6,72,30.38,10.0,NE,3.5,-,N/A,,Scattered Clouds,40,2013-01-09 16:55:00
11:15 AM,55.4,46.4,72,30.38,10.0,NNE,3.5,-,N/A,,Clear,30,2013-01-09 17:15:00
11:35 AM,57.2,46.4,67,30.38,10.0,NE,5.8,-,N/A,,Clear,50,2013-01-09 17:35:00
11:55 AM,55.4,46.4,72,30.37,10.0,NE,6.9,-,N/A,,Clear,40,2013-01-09 17:55:00
12:35 PM,57.2,46.4,67,30.36,10.0,NE,8.1,-,N/A,,Clear,40,2013-01-09 18:35:00
12:55 PM,57.2,46.4,67,30.35,10.0,NNE,9.2,-,N/A,,Clear,20,2013-01-09 18:55:00
1:15 PM,57.2,46.4,67,30.36,10.0,NNE,9.2,-,N/A,,Clear,20,2013-01-09 19:15:00
1:35 PM,59.0,46.4,63,30.36,10.0,NE,9.2,-,N/A,,Clear,50,2013-01-09 19:35:00
1:55 PM,59.0,46.4,63,30.37,10.0,NNE,9.2,-,N/A,,Clear,30,2013-01-09 19:55:00
2:15 PM,59.0,46.4,63,30.37,10.0,NNE,8.1,-,N/A,,Clear,30,2013-01-09 20:15:00
2:35 PM,59.0,46.4,63,30.36,10.0,NNE,8.1,-,N/A,,Clear,20,2013-01-09 20:35:00
2:55 PM,59.0,46.4,63,30.37,10.0,NNE,8.1,-,N/A,,Clear,30,2013-01-09 20:55:00
3:15 PM,59.0,46.4,63,30.37,10.0,NNE,6.9,-,N/A,,Clear,30,2013-01-09 21:15:00
3:35 PM,57.2,46.4,67,30.37,10.0,NNE,6.9,-,N/A,,Clear,30,2013-01-09 21:35:00
3:55 PM,57.2,44.6,63,30.37,10.0,NNE,6.9,-,N/A,,Clear,30,2013-01-09 21:55:00
4:15 PM,55.4,42.8,63,30.37,10.0,NNE,8.1,-,N/A,,Clear,20,2013-01-09 22:15:00
4:35 PM,55.4,42.8,63,30.38,10.0,NNE,5.8,-,N/A,,Clear,20,2013-01-09 22:35:00
4:55 PM,55.4,41.0,58,30.38,10.0,NNE,9.2,-,N/A,,Clear,20,2013-01-09 22:55:00
5:15 PM,53.6,41.0,62,30.39,10.0,NNE,9.2,-,N/A,,Clear,30,2013-01-09 23:15:00
5:35 PM,53.6,41.0,62,30.40,10.0,NE,9.2,-,N/A,,Clear,40,2013-01-09 23:35:00
5:55 PM,53.6,41.0,62,30.41,10.0,NE,8.1,-,N/A,,Clear,40,2013-01-09 23:55:00
6:15 PM,51.8,42.8,71,30.42,10.0,NE,8.1,-,N/A,,Clear,40,2013-01-10 00:15:00
6:35 PM,51.8,42.8,71,30.42,10.0,NE,9.2,-,N/A,,Clear,40,2013-01-10 00:35:00
6:55 PM,51.8,42.8,71,30.42,10.0,NE,8.1,-,N/A,,Clear,40,2013-01-10 00:55:00
7:15 PM,51.8,42.8,71,30.42,10.0,NE,9.2,-,N/A,,Clear,40,2013-01-10 01:15:00
7:35 PM,50.0,42.8,76,30.43,10.0,NE,8.1,-,N/A,,Clear,40,2013-01-10 01:35:00
8:15 PM,51.8,41.0,67,30.43,10.0,NE,11.5,-,N/A,,Clear,50,2013-01-10 02:15:00
8:35 PM,51.8,41.0,67,30.43,10.0,NE,11.5,-,N/A,,Clear,50,2013-01-10 02:35:00
8:55 PM,51.8,41.0,67,30.44,10.0,NE,10.4,-,N/A,,Clear,50,2013-01-10 02:55:00
9:15 PM,51.8,41.0,67,30.43,10.0,NE,11.5,-,N/A,,Clear,50,2013-01-10 03:15:00
9:35 PM,50.0,41.0,71,30.42,10.0,NE,10.4,-,N/A,,Clear,40,2013-01-10 03:35:00
9:55 PM,50.0,41.0,71,30.41,10.0,NE,10.4,16.1,N/A,,Clear,40,2013-01-10 03:55:00
10:15 PM,50.0,41.0,71,30.41,10.0,NE,11.5,-,N/A,,Clear,40,2013-01-10 04:15:00
10:35 PM,50.0,41.0,71,30.42,10.0,NE,10.4,-,N/A,,Clear,50,2013-01-10 04:35:00
10:55 PM,50.0,41.0,71,30.43,10.0,NE,8.1,-,N/A,,Scattered Clouds,40,2013-01-10 04:55:00
11:15 PM,50.0,41.0,71,30.43,10.0,NE,9.2,-,N/A,,Mostly Cloudy,50,2013-01-10 05:15:00
11:35 PM,50.0,39.2,66,30.43,10.0,NE,10.4,-,N/A,,Overcast,50,2013-01-10 05:35:00